Content
SEND FEEDBACK

Daily
Averages
Monthly
Summary
Spain

PUERTO DEL ROSARIO, SPAIN


Home > Europe > Spain
Elevation: 98 feet     Latitude: 28 27N     Longitude: 013 52W

WEATHER
 
SELECT A DAY
Number of Records: 221,655;   Date Range: 7/1/96 - 12/17/14
 
SHARE

PRINT THIS DATA

[ ← Previous Day ]
WEATHER ALMANAC - MARCH 19, 2013
[ Next Day → ]
[ °C ]   °F
Weather ElementAverageHighLow
Temperature69.4 °F75.2 °F (2:00 pm)62.6 °F (7:00 am)
Dewpoint56.7 °F60.8 °F (10:00 am)53.6 °F (1:30 pm)
Humidity64.3 %83 % (10:00 am)47 % (2:00 pm)
Barometer29.94 in30.01 in (9:30 pm)29.86 in (6:30 am)
Wind Speed13.9 mph20.7 mph (2:30 pm)
Wind Gust35.7 mph (1:00 pm)
Weather ElementAverage
Visibility6.2 mi
Wind DirectionWNW (294.7 °)

Weather ElementTotal
Precipitation---
Cooling Degree Days3.9 (Base 65)
Growing Degree Days18.9 (Base 50)
Averaged from 34 records on March 19, 2013
WEATHER CONDITIONS BREAKOUT
WIND DIRECTION BREAKOUT
WEATHER BY HOUR - MARCH 19, 2013
[ °C ]   °F
Local TimeTemperatureDewpointHumidityBarometerVisibilityWind DirectionWind SpeedGust SpeedPrecipitationEventsConditions
6:30 AM64.4 °F57.2 °F77 %29.86 in6.2 miWest (280°)4.6 mphPartly Cloudy
7:00 AM62.6 °F55.4 °F77 %29.89 in6.2 miWSW (250°)3.5 mphPartly Cloudy
7:30 AM64.4 °F57.2 °F77 %29.89 in6.2 miWSW (250°)3.5 mphPartly Cloudy
8:00 AM68.0 °F59.0 °F73 %29.89 in6.2 miWest (270°)8.1 mphPartly Cloudy
8:30 AM68.0 °F57.2 °F68 %29.89 in6.2 miWest (270°)11.5 mphPartly Cloudy
9:00 AM69.8 °F57.2 °F64 %29.92 in6.2 miWest (280°)11.5 mphScattered Clouds
9:30 AM69.8 °F59.0 °F68 %29.92 in6.2 miWest (280°)13.8 mph31.1 mphRainLight Rain
10:00 AM66.2 °F60.8 °F83 %29.95 in6.2 miWNW (300°)12.7 mphMostly Cloudy
10:30 AM69.8 °F60.8 °F73 %29.95 in6.2 miWNW (300°)15.0 mph27.6 mphScattered Clouds
11:00 AM71.6 °F57.2 °F60 %29.95 in6.2 miWest (280°)18.4 mphScattered Clouds
11:30 AM71.6 °F57.2 °F60 %29.95 in6.2 miWNW (290°)18.4 mphScattered Clouds
12:00 PM73.4 °F57.2 °F57 %29.95 in6.2 miWest (280°)18.4 mphScattered Clouds
12:30 PM71.6 °F57.2 °F60 %29.95 in6.2 miWNW (290°)17.3 mphScattered Clouds
1:00 PM73.4 °F55.4 °F53 %29.95 in6.2 miWest (280°)18.4 mph35.7 mphScattered Clouds
1:30 PM73.4 °F53.6 °F50 %29.92 in6.2 miWNW (290°)18.4 mphScattered Clouds
2:00 PM75.2 °F53.6 °F47 %29.92 in6.2 miWNW (290°)19.6 mphScattered Clouds
2:30 PM73.4 °F55.4 °F53 %29.92 in6.2 miWNW (290°)20.7 mphScattered Clouds
3:00 PM73.4 °F53.6 °F50 %29.92 in6.2 miWest (280°)18.4 mphPartly Cloudy
3:30 PM73.4 °F53.6 °F50 %29.92 in6.2 miWNW (290°)18.4 mphPartly Cloudy
4:00 PM71.6 °F57.2 °F60 %29.92 in6.2 miWNW (300°)17.3 mphPartly Cloudy
4:30 PM71.6 °F55.4 °F57 %29.92 in6.2 miWNW (300°)18.4 mphPartly Cloudy
5:00 PM71.6 °F57.2 °F60 %29.92 in6.2 miWNW (300°)17.3 mphPartly Cloudy
5:30 PM69.8 °F57.2 °F64 %29.92 in6.2 miWNW (300°)18.4 mphPartly Cloudy
6:00 PM69.8 °F57.2 °F64 %29.92 in6.2 miWNW (300°)17.3 mphPartly Cloudy
6:30 PM69.8 °F57.2 °F64 %29.92 in6.2 miWNW (290°)16.1 mphPartly Cloudy
7:00 PM68.0 °F55.4 °F64 %29.95 in6.2 miWNW (300°)16.1 mph31.1 mphPartly Cloudy
7:30 PM68.0 °F57.2 °F68 %29.95 in6.2 miWNW (300°)15.0 mphScattered Clouds
8:00 PM68.0 °F57.2 °F68 %29.98 in6.2 miNW (320°)9.2 mphScattered Clouds
8:30 PM68.0 °F57.2 °F68 %29.98 in6.2 miNW (310°)9.2 mphScattered Clouds
9:00 PM66.2 °F55.4 °F68 %29.98 in6.2 miNW (320°)15.0 mphScattered Clouds
9:30 PM66.2 °F57.2 °F73 %30.01 in6.2 miNW (320°)10.4 mphScattered Clouds
10:00 PM66.2 °F55.4 °F68 %30.01 in6.2 miNNW (330°)6.9 mphScattered Clouds
10:30 PM66.2 °F57.2 °F73 %30.01 in6.2 miNNW (340°)10.4 mphScattered Clouds
11:00 PM66.2 °F55.4 °F68 %30.01 in6.2 miNorth (350°)4.6 mphScattered Clouds
Hourly data recorded from GCFV, located miles away from Puerto del Rosario, Spain







STORIES FROM OUR PARTNERS